AirNav   ATP
 
 920 users online  

SN65 Lake Waltanna Airport
Goddard, Kansas, USA

GOING TO GODDARD?


FAA INFORMATION EFFECTIVE 07 DECEMBER 2017

Location

FAA Identifier: SN65
Lat/Long: 37-35-38.7200N / 097-36-55.7800W
37-35.645333N / 097-36.929667W
37.5940889 / -97.6154944
(estimated)
Elevation: 1448 ft. / 441 m (estimated)
From city: 4 miles SW of GODDARD, KS
Time zone: UTC -6 (UTC -5 during Daylight Saving Time)
Zip code: 67052

Airport Operations

Airport use: Private use. Permission required prior to landing
Activation date: 04/1976
Control tower: no
ARTCC: KANSAS CITY CENTER
FSS: WICHITA FLIGHT SERVICE STATION
Attendance: UNATNDD
Wind indicator: yes
Segmented circle: no

Airport Communications

WX ASOS at ICT (9 nm E): PHONE 316-945-8022
WX AWOS-3 at EGT (20 nm SE): 118.875 (620-326-2470)
WX AWOS-3PT at BEC (20 nm E): 119.45 (316-515-7116)

Nearby radio navigation aids

VOR radial/distance  VOR name  Freq  Var
ICTr182/9.2WICHITA VORTAC113.8007E
HUTr144/28.5HUTCHINSON VOR/DME116.8004E
ANYr038/37.2ANTHONY VORTAC112.9007E

 
NDB name  Hdg/Dist  Freq  Var  ID
PICHE273/7.633204EIC .. -.-.
NEWTON204/32.528106EEWK . .-- -.-

Airport Services

Runway Information

Runway 17/35

Dimensions: 2100 x 100 ft. / 640 x 30 m
Surface: turf
RUNWAY 17  RUNWAY 35
Latitude: 37-35.818500N37-35.472333N
Longitude: 097-36.932833W097-36.926667W
Elevation: 1391.0 ft.1401.0 ft.
Traffic pattern: rightleft
Runway heading: 179 true359 true

Airport Ownership and Management from official FAA records

Ownership: Privately-owned
Owner: LK WALTANNA HOME OWNERS ASSOC
LAKE WALTANNA
GODDARD, KS 67052
Phone 316-794-2370
Manager: NICK MARDIS
17 LAKERIDGE DR
GODDARD, KS 67052
Phone 316-794-2370

Airport Operational Statistics

Aircraft based on the field: 7
Single engine airplanes: 7
    

Instrument Procedures

There are no published instrument procedures at SN65.

Some nearby airports with instrument procedures:

KICT - Wichita Dwight D Eisenhower National Airport (9 nm E)
KIAB - Mc Connell Air Force Base (17 nm E)
KCEA - Cessna Aircraft Field Airport (18 nm E)
KEGT - Wellington Municipal Airport (20 nm SE)
KBEC - Beech Factory Airport (20 nm E)
 
Loc | Ops | Rwys | IFR | FBO | Links
Com | Nav | Svcs | Stats | Notes

Kansas City Aviation Department
 
Area around SN65 (Lake Waltanna Airport)
 
Road maps at: MapQuest Bing Google
 
Aerial photo
No photo
 
Sectional chart

 
Airport distance calculator
Flying to Lake Waltanna Airport? Find the distance to fly.

From to SN65

Sunrise and sunset
Times for 12-Dec-2017
 Local
(UTC-6)
 Zulu
(UTC)
Morning civil twilight07:0813:08
Sunrise07:3713:37
Sunset17:1123:11
Evening civil twilight17:4123:41

Current date and time
Zulu (UTC)  13-Dec-2017 02:28:17
Local (UTC-6)  12-Dec-2017 20:28:17
 
METAR
KICT 
9nm E 
130153Z 18008KT 10SM CLR 03/M02 A3008 RMK AO2 SLP196 T00331022
KIAB 
17nm E 
130156Z AUTO 22009KT 10SM CLR 04/M03 A3008 RMK AO2 SLP200 T00421029
KBEC 
20nm E 
130215Z AUTO 21006KT 10SM CLR 05/M02 A3007 RMK AO2 T00461025
TAF
KICT 
9nm E 
121720Z 1218/1318 28008KT P6SM SKC FM122100 23009KT P6SM SKC FM131500 31007KT P6SM SKC
KIAB 
17nm E 
121600Z 1218/1324 29009KT 9999 SKC QNH3015INS BECMG 1300/1301 22006KT 9999 SKC QNH2984INS BECMG 1315/1316 30012G18KT 9999 SKC QNH2988INS BECMG 1318/1319 32012G20KT 9999 FEW150 QNH2986INS TX09/1220Z TNM03/1311Z
NOTAMs
Click for the latest NOTAMs
NOTAMs are issued by the DoD/FAA and will open in a separate window not controlled by AirNav.

 

 
 

Would you like to see your business listed on this page?

 If your business provides an interesting product or service to pilots, flight crews, aircraft, or users of the Lake Waltanna Airport, you should consider listing it here.  To start the listing process, click on the button below
 
Add a business
 

Other Pages about Lake Waltanna Airport

Update a link
 
Copyright © AirNav, LLC. All rights reserved. Privacy Policy  Contact